Location: Unnamed
(51.5169°N, 0.1311°W)
Time: 20:17:36
(UTC+00:00)

Tiangong - Visible Passes

Search period start: 08 March 2026 00:00
Search period end: 18 March 2026 00:00
Orbit: 381 x 391 km, 41.5° (Epoch: 8 March)

Date Brightness Start Highest point End Pass type
(mag) Time Alt. Az. Time Alt. Az. Time Alt. Az.
15 Mar 0.4 05:34:32 10° SSW 05:36:12 14° S 05:37:52 10° SE visible
16 Mar 0.4 04:36:08 11° S 04:36:51 12° S 04:38:10 10° SE visible
17 Mar 0.2 05:11:44 10° SW 05:13:28 14° S 05:15:13 10° SSE visible
